Vertical_Velocity
-6 -8 -6 -5 -3 -6 -3 -6 -2 2 -1 -3 -5 -4 -1 -5 -3 1 3 5 2 -1 -0 -3 3 -1 -1 7 -1 -2 -3 4 3 -2 -1 -2 1 -1 3 -1 1 4 0
-3 2 1 -5 -4 0 -2 -4 -5 -2 3 -3 3 -7 -4 -3 2 1 -0 5 4 4 0 -3 4 2 -4 -1 2 -1 -0 3 -3 1 -1 -6 -4 2 4 3 0 3 -0
0 -1 -2 -2 -1 1 -1 -1 -0 2 4 1 -2 -0 -2 2 -5 4 2 3 1 0 1 2 -1 2 0 -1 3 1 -0 4 -1 -3 4 -6 -3 3 -2 5 -1 2 2
-2 -4 -0 4 1 -1 -1 -2 -2 -1 -2 -3 -3 -4 -1 -2 1 1 2 8 5 6 6 7 4 5 -1 -1 6 4 -0 1 6 -1 -1 -4 1 -5 -1 -1 5 -0 0
-4 -1 -2 -6 -9 -5 -4 -2 -4 -2 -2 -6 -3 -1 -5 -4 -11 -8 1 2 4 3 5 5 6 4 1 2 8 5 1 -1 0 8 2 -1 -4 -2 2 1 7 -5 9
-3 -3 -1 -1 -1 -2 -2 -2 -3 2 -3 -1 -2 -3 -1 -3 -4 -6 -0 2 0 3 1 3 4 7 5 -0 5 8 5 5 -0 -0 2 0 -5 6 -4 -1 2 3 -1
-2 -1 -1 0 -1 -2 -2 -1 -4 1 -2 -2 -0 0 6 4 -2 -2 -3 -1 0 4 8 -1 -0 -1 2 2 4 5 2 7 3 7 2 -0 1 1 -0 -4 2 1 2
-4 2 2 -1 -2 -3 -5 -3 2 1 -5 -2 -2 -2 -5 -4 -3 -1 1 -2 -1 -2 1 4 4 1 -1 6 -2 6 -0 2 1 3 4 3 2 1 1 1 0 -4 1
2 -1 -3 -2 -3 -1 -1 4 1 0 -1 -1 -3 1 -1 2 2 -1 -3 1 -2 3 2 4 5 6 7 -0 2 -0 1 3 3 1 0 -2 2 0 5 2 -0 -2 -4
-1 -3 -3 -4 0 0 -3 -4 -9 -6 -5 -6 -8 1 -2 -5 2 3 5 4 -3 -2 1 5 6 8 6 3 1 -0 2 1 4 4 2 -5 -4 -0 5 6 2 -5 0
3 -1 -6 -4 -2 -6 -3 -5 0 -5 -2 -6 -4 -2 -2 -5 -4 2 -4 -2 -4 -2 -3 4 9 -1 1 -2 0 2 4 -4 5 5 2 4 2 -1 1 -1 -2 -3 -7
-0 -4 -4 1 -4 -4 -2 2 -3 -5 -6 -9 -3 0 -3 -8 -1 0 3 -2 -4 -3 1 1 -2 -0 -1 -1 -4 2 2 -0 -3 5 3 1 1 -3 3 3 2 1 -2
-2 -1 -1 2 0 2 -1 -2 -0 -4 -1 -6 -6 -5 -1 -10 -1 -1 -7 -7 -3 -1 2 11 55 14 7 -3 6 1 -1 -3 1 -0 -1 2 1 3 4 6 2 1 3
2 -0 1 0 1 0 2 -3 -5 -5 -1 4 -0 -5 -5 -7 -5 -5 -1 -6 -1 -2 -5 -2 3 2 3 2 5 3 1 -1 3 2 1 6 3 6 5 -1 2 1 -2
0 -2 -2 -1 -3 -2 1 -1 2 2 -4 -4 1 -4 -4 -4 -4 -3 -3 -6 -1 -3 -4 -7 -6 -3 3 -2 5 5 5 5 4 1 -0 3 2 1 -1 -1 5 -3 -3
-1 -1 -3 0 -3 -0 -3 4 1 3 -4 -2 -6 1 -1 -3 0 -3 -4 -1 -0 1 1 -3 -1 2 2 0 1 2 1 4 3 1 0 -2 -3 -1 -2 -4 -1 1 0
-1 -2 -0 -4 0 -2 -1 -2 3 3 -0 3 -6 -8 -1 1 -3 -4 1 3 4 2 1 0 1 0 0 1 2 -0 0 -2 -2 -1 1 2 7 4 4 4 3 1 -0
-0 1 -2 -2 -1 -0 1 -3 -3 1 1 -0 1 -1 -9 -4 -0 0 1 3 5 2 7 5 2 2 3 2 1 0 -1 1 2 3 2 1 3 3 3 -2 0 3 -1
-1 1 3 5 -0 -2 -2 2 -2 -1 1 0 1 0 1 3 -6 0 0 4 13 13 -2 2 -0 2 3 -0 -1 -3 2 3 1 -0 -1 -1 0 5 3 -1 1 2 -9
-4 -1 2 1 2 1 0 -3 0 0 0 0 -2 1 -1 3 -1 -10 -5 -5 10 1 33 31 28 16 4 5 2 3 1 2 3 -0 -3 1 1 -3 2 3 4 1 7
1 1 -1 -0 1 2 2 2 -2 -1 -2 -0 3 -4 -3 5 5 3 -5 -10 1 -6 -9 -2 -0 3 3 3 13 12 2 7 17 22 13 16 27 10 11 7 6 4 4
-0 1 2 1 1 -1 -0 1 2 0 -0 -1 -3 -0 1 -4 -2 3 5 4 3 -5 -6 1 -1 2 5 2 -4 -7 -10 -4 -2 -12 -5 -3 2 2 4 3 3 4 3
-3 -4 -3 1 3 0 -1 -3 -3 -0 0 -1 -3 -1 -1 -1 -0 -1 -1 1 3 3 3 -0 -1 -3 -2 2 -0 1 1 4 0 -0 -1 -1 1 1 3 1 1 2 2
-2 -1 -2 -2 -3 -2 0 -0 -0 -1 -2 -3 -2 -3 -2 -3 -3 -1 -1 -0 1 1 4 4 2 2 2 -0 -2 -0 3 2 -1 -2 1 2 3 2 1 2 1 0 0
-3 -1 1 0 2 0 -2 -1 -1 0 -2 -3 -1 1 -2 -2 -1 -3 -4 -2 -1 -1 1 1 3 5 3 3 2 2 -1 0 3 3 1 0 1 1 2 2 3 2 1
2 4 -1 -2 -1 0 -2 1 2 1 2 2 -2 -4 -2 -1 -2 2 -2 0 -0 -1 -2 0 1 0 3 2 3 2 1 0 -2 -1 -0 0 -3 -3 -2 -2 -0 1 2
Height
5770 5771 5771 5770 5770 5769 5769 5768 5767 5766 5763 5761 5759 5760 5762 5762 5763 5763 5763 5765 5765 5766 5768 5770 5776 5777 5780 5785 5790 5795 5798 5802 5804 5805 5807 5810 5811 5813 5818 5821 5822 5824 5822
5759 5758 5757 5755 5754 5754 5753 5752 5750 5750 5747 5745 5745 5742 5740 5743 5744 5744 5743 5743 5744 5747 5747 5751 5755 5760 5763 5767 5772 5776 5781 5786 5789 5793 5794 5795 5799 5802 5810 5811 5812 5814 5814
5748 5746 5744 5741 5740 5737 5735 5734 5734 5731 5728 5725 5723 5722 5721 5721 5720 5720 5721 5719 5719 5721 5725 5726 5730 5735 5741 5746 5751 5759 5763 5767 5772 5777 5781 5780 5784 5791 5796 5800 5802 5803 5805
5735 5734 5732 5729 5725 5723 5720 5717 5714 5711 5707 5704 5702 5700 5700 5700 5696 5691 5691 5693 5691 5694 5697 5700 5706 5710 5715 5723 5732 5736 5743 5748 5754 5758 5765 5766 5770 5776 5783 5788 5792 5794 5795
5723 5720 5717 5714 5712 5709 5706 5703 5700 5697 5692 5690 5687 5684 5683 5681 5677 5673 5669 5669 5668 5667 5669 5672 5677 5683 5690 5700 5708 5716 5720 5727 5733 5741 5747 5753 5755 5761 5768 5774 5781 5783 5786
5711 5709 5707 5705 5702 5700 5696 5692 5689 5683 5679 5675 5671 5667 5664 5660 5655 5651 5648 5645 5644 5643 5646 5648 5651 5655 5663 5673 5683 5693 5699 5706 5713 5720 5728 5736 5742 5747 5753 5758 5766 5770 5771
5705 5701 5699 5696 5694 5691 5686 5681 5676 5670 5664 5658 5653 5647 5642 5639 5636 5631 5628 5625 5621 5622 5625 5624 5627 5631 5637 5647 5658 5666 5676 5686 5694 5704 5710 5718 5726 5732 5737 5742 5750 5755 5759
5699 5696 5692 5688 5686 5682 5676 5670 5664 5658 5651 5643 5635 5629 5623 5620 5615 5609 5604 5602 5600 5600 5602 5602 5604 5609 5615 5624 5633 5643 5652 5667 5676 5685 5694 5701 5709 5717 5722 5729 5733 5739 5745
5694 5690 5686 5683 5679 5673 5667 5661 5655 5647 5638 5629 5620 5612 5607 5602 5596 5587 5583 5580 5576 5575 5575 5577 5583 5589 5594 5603 5613 5623 5633 5643 5658 5669 5679 5687 5695 5701 5709 5714 5720 5724 5730
5691 5686 5681 5677 5673 5668 5661 5654 5646 5638 5629 5620 5610 5599 5589 5583 5578 5570 5563 5554 5548 5543 5545 5550 5559 5568 5576 5585 5595 5604 5616 5625 5638 5652 5661 5671 5681 5686 5695 5701 5706 5710 5716
5688 5683 5678 5673 5667 5661 5654 5645 5637 5628 5620 5610 5600 5585 5573 5568 5564 5556 5545 5530 5518 5509 5509 5521 5536 5547 5560 5572 5580 5590 5601 5610 5622 5635 5647 5656 5664 5671 5679 5686 5692 5697 5703
5684 5679 5673 5669 5662 5654 5647 5639 5631 5621 5610 5601 5591 5575 5563 5559 5552 5546 5531 5513 5501 5492 5492 5502 5519 5534 5548 5559 5569 5577 5587 5596 5609 5620 5630 5641 5650 5657 5666 5671 5677 5684 5689
5679 5674 5671 5665 5659 5652 5645 5637 5628 5618 5605 5597 5587 5569 5557 5548 5545 5537 5525 5510 5501 5496 5495 5502 5516 5523 5534 5548 5556 5566 5575 5586 5595 5606 5617 5627 5635 5645 5651 5659 5665 5670 5674
5675 5672 5668 5663 5657 5650 5643 5637 5628 5618 5606 5596 5585 5571 5554 5549 5543 5533 5524 5514 5508 5505 5506 5509 5514 5524 5533 5539 5545 5554 5564 5575 5586 5596 5607 5616 5624 5631 5637 5643 5650 5654 5660
5671 5668 5664 5660 5655 5649 5642 5635 5628 5618 5608 5597 5586 5573 5563 5553 5544 5535 5528 5521 5518 5515 5514 5516 5520 5527 5534 5539 5545 5552 5560 5570 5578 5587 5598 5607 5614 5621 5626 5632 5638 5643 5648
5667 5663 5661 5656 5653 5647 5642 5637 5629 5620 5611 5601 5588 5577 5568 5559 5551 5542 5535 5528 5525 5523 5522 5522 5524 5528 5533 5537 5542 5550 5559 5568 5575 5584 5592 5599 5605 5612 5618 5624 5628 5633 5637
5662 5659 5656 5653 5649 5645 5641 5637 5630 5623 5614 5605 5596 5585 5574 5565 5557 5550 5543 5537 5533 5529 5527 5527 5529 5531 5534 5537 5542 5549 5556 5563 5570 5578 5585 5592 5598 5604 5609 5613 5618 5622 5625
5657 5653 5651 5649 5647 5643 5640 5635 5630 5623 5617 5608 5600 5591 5584 5574 5566 5558 5551 5545 5541 5537 5535 5534 5533 5534 5537 5540 5544 5548 5553 5560 5567 5574 5580 5585 5591 5596 5600 5604 5608 5611 5614
5654 5651 5648 5645 5643 5641 5639 5634 5630 5623 5617 5612 5604 5597 5590 5583 5575 5568 5562 5555 5550 5545 5543 5539 5539 5540 5541 5543 5545 5548 5552 5559 5564 5569 5573 5578 5583 5589 5593 5596 5600 5604 5605
5652 5649 5646 5644 5642 5639 5636 5633 5629 5625 5619 5613 5607 5601 5596 5590 5584 5579 5573 5567 5561 5555 5551 5548 5546 5545 5546 5546 5548 5550 5551 5556 5560 5565 5569 5573 5578 5582 5585 5588 5591 5594 5596
5650 5646 5642 5641 5640 5638 5635 5632 5628 5623 5619 5614 5610 5604 5599 5594 5589 5584 5581 5578 5574 5571 5564 5558 5551 5553 5552 5553 5554 5554 5556 5559 5562 5565 5567 5570 5575 5579 5581 5584 5588 5591 5593
5647 5644 5641 5638 5636 5634 5632 5630 5627 5623 5619 5614 5610 5606 5601 5597 5592 5588 5585 5582 5579 5578 5575 5572 5569 5565 5563 5561 5561 5561 5562 5563 5564 5566 5569 5572 5574 5577 5580 5583 5586 5589 5590
5643 5640 5637 5635 5632 5630 5627 5625 5623 5620 5617 5614 5610 5606 5601 5597 5594 5591 5587 5584 5581 5580 5578 5576 5574 5573 5571 5570 5569 5569 5569 5570 5571 5572 5573 5574 5575 5577 5579 5581 5582 5584 5584
5637 5635 5633 5630 5627 5624 5622 5620 5618 5615 5613 5610 5607 5603 5600 5597 5594 5590 5587 5585 5582 5580 5578 5577 5576 5574 5573 5572 5572 5571 5570 5570 5571 5571 5571 5572 5572 5573 5574 5575 5576 5576 5576
5632 5629 5626 5624 5622 5619 5616 5613 5611 5609 5606 5603 5600 5598 5595 5593 5591 5588 5586 5583 5580 5578 5576 5575 5574 5573 5572 5571 5570 5569 5568 5568 5568 5568 5568 5568 5568 5568 5568 5568 5568 5567 5566
5632 5626 5623 5620 5617 5613 5610 5607 5604 5601 5598 5596 5593 5591 5589 5586 5584 5582 5580 5578 5577 5575 5573 5571 5570 5569 5568 5567 5566 5565 5564 5563 5563 5562 5562 5561 5561 5561 5560 5560 5559 5557 5555